TITAN 3C TRANSTAGE DEB, 26764

Orbit data source: Space-Track

TITAN 3C TRANSTAGE DEB, 26764 is space debris in HEO originally from a launch on Tue, 21 Dec 1965 UTC launched from the Air Force Eastern Test Range (AFETR). Debris objects in space refer to the collection of defunct objects orbiting the Earth. Examples of debris include non-operational satellites, rocket bodies, and fragments generated from explosions, collisions, or faulty payload assembly.

Loading next visibility...
Identifier
26764, 1965-108AT
Orbit
HEO
Country
Flag of USUS
Related business
Manufacturer
Unknown
Mission
Spacecraft
Bus & Motor
Unknown
Mass
Unknown
Launch date (UTC)
1965-12-21 (60 years ago)
Launch vehicle
Unknown
Launch site
Air Force Eastern Test Range (AFETR)
Object type
Payload
Rocket body
Debris
Shape & HBR
Unknown shape, 1.1 m
Radar Cross Section
Small (<0.1 m²)

Expand to show TLE details & history
Last TLE update: 1 week ago

TLE from 1 week ago
0 TITAN 3C TRANSTAGE DEB
1 26764U 65108AT  25289.27229917 -.00000117  00000-0  20884-2 0  9994
2 26764  26.2272 211.8475 6775353 164.4769 303.5705  2.67003340  5901
Epoch: 2025-10-16T06:32Z
TLE epoch observation values (Epoch: 2025-10-16T06:32:06.648Z)
Latitude
12.06767°
Longitude
114.35455°
Altitude
16,897.987 km
Speed
4.011 km/s
True Right ascension
15h 49m 39s
True Declination
12° 02' 46"
Sunlit
Object was in daylight at epoch
Visualization orbit readout
Latitude
Unknown
Longitude
Unknown
Altitude
Unknown
Speed
Unknown
Apparent Right ascension
Unknown
Apparent Declination
Unknown
Sunlit
N/A
Visualization observer readout
Local Sidereal Time
10:26:30
Azimuth
Unknown
Elevation
Unknown
Doppler factor
Unknown
Orbital elements
Apogee altitude
30,446.054 km
Perigee altitude
700.404 km
Semi-major axis
21,951.366 km
Eccentricity
0.67754
Inclination
26.2272°
RAAN
211.8475°
Arg. of periapsis
164.4769°
True anomaly
223.70914°
Mean anomaly
303.5705°
Eccentric anomaly
264.90403°
Mean motion
0.66735 °/min
Orbital period
539.45 mins
BSTAR
0.0020884
Loading maneuver chart data...
Computing Atmospheric mass density...

Documentation

Showing up to 5 results
|